Flag for Canada Weather past 2 weeks in Caledon, Ontario, Canada

Now
18 °F

Passing clouds.


Feels Like: 2 °F
Forecast: -3 / 21 °F
Wind: 17 mph from Southwest

Location: Borden

Current Time: Mar 6, 2015 at 1:36:10 PM

Latest Report: Mar 6, 2015 at 1:00 PM


Visibility: 9 mi

Pressure: 30.40 "Hg

Humidity: 58%

Dew point: 5 °F

Location of CaledonLocation

Historic Weather in Caledon — Graph

°F

Caledon temperature yesterday

Maximum temperature yesterday: 10 °F (at 1:00 PM)
Minimum temperature yesterday: -13 °F (at 11:00 PM)
Average temperature yesterday: 2 °F

Past Weeks' High & Low Weather Summary

 TemperatureHumidityPressure
High30 °F (Mar 3, 10:00 PM)100% (Feb 21, 7:00 PM)30.77 "Hg (Feb 21, 7:00 PM)
Low-20 °F (Feb 27, 6:00 AM)38% (Feb 20, 4:00 PM)29.51 "Hg (Mar 3, 8:56 PM)
Average7 °F71%30.21 "Hg
* Reported Feb 19 12:02 PM — Mar 6 12:00 Noon, Caledon, Weather by CustomWeather, © 2015

Note: Actual official high and low records may vary slightly from our data, if they occured in-between our weather recording intervals... More about our weather records

Advertising

Caledon weather history for previous 24 hours

 ConditionsComfort  
Time TempWeatherWind HumidityBarometerVisibility
12:00 PM
Fri, Mar 6
18 °FSunny.16 mph58%30.42 "Hg9 mi
11:00 AM16 °FSunny.14 mph57%30.44 "Hg9 mi
10:00 AM12 °FSunny.15 mph62%30.45 "Hg9 mi
9:00 AM3 °FSunny.8 mph72%30.48 "Hg9 mi
8:00 AM-4 °FSunny.7 mph77%30.48 "Hg9 mi
7:00 AM-9 °FSunny.3 mph77%30.48 "Hg9 mi
6:00 AM-9 °FClear.6 mph70%30.49 "Hg9 mi
5:00 AM-6 °FClear.9 mph77%30.47 "Hg9 mi
4:00 AM-4 °FClear.8 mph77%30.47 "Hg9 mi
3:00 AM-13 °FClear.3 mph69%30.48 "Hg9 mi
2:00 AM-13 °FClear.5 mph76%30.50 "Hg9 mi
1:00 AM-15 °FClear.5 mph69%30.50 "Hg9 mi
12:00 AM-13 °FClear.5 mph69%30.50 "Hg9 mi
11:00 PM
Thu, Mar 5
-13 °FClear.2 mph69%30.51 "Hg9 mi
10:00 PM-11 °FClear.5 mph76%30.51 "Hg9 mi
9:00 PM-9 °FClear.2 mph77%30.49 "Hg9 mi
8:00 PM-8 °FClear.5 mph77%30.48 "Hg9 mi
7:00 PM0 °FClear.No wind71%30.46 "Hg9 mi
6:00 PM7 °FSunny.7 mph61%30.42 "Hg9 mi
5:00 PM9 °FSunny.10 mph51%30.40 "Hg9 mi
4:00 PM10 °FSunny.9 mph40%30.39 "Hg9 mi
3:00 PM10 °FSunny.14 mph47%30.37 "Hg9 mi
2:00 PM10 °FPassing clouds.9 mph47%30.37 "Hg9 mi
1:00 PM10 °FSunny.10 mph44%30.37 "Hg9 mi
Weather by CustomWeather, © 2015

See weather overviewHow to use our weather pages